Volver al catálogo

DELTA 1 DEB

ActivoSSO
NORAD 12270·DEBRIS·🇺🇸 United States

Lanzado Mar 5, 1978 desde Vandenberg Space Force Base

Loading…

Próximos Pases (próximas 24 horas)

TLE

ActualizadoSource: Space-Track

Época: Sep 13, 2026, 14:10 UTC

1 12270U 78026DP  26256.59077839  .00000098  00000-0  11123-3 0  9992
2 12270  99.0588 177.8605 0065370 285.4477 199.0756 13.90767056312596

Sigue DELTA 1 DEB en tiempo real con AllMySat

Download on the App Store